Total_Precipitation_Accumulation
0.01 0.01 0.02 0.02 0.03 0.03 0.04 0.05 0.05 0.06 0.06 0.07 0.09 0.10 0.10 0.10 0.09 0.09 0.09 0.08 0.08 0.08 0.08 0.09 0.09 0.10 0.10 0.10 0.10 0.09 0.09 0.11 0.11 0.05 0.03 0.04 0.06 0.07 0.06 0.07 0.06 0.07 0.07
0.01 0.01 0.02 0.02 0.02 0.03 0.04 0.05 0.05 0.05 0.05 0.06 0.06 0.05 0.05 0.05 0.05 0.06 0.06 0.07 0.07 0.08 0.10 0.11 0.12 0.13 0.14 0.13 0.12 0.11 0.10 0.10 0.12 0.09 0.04 0.02 0.03 0.04 0.04 0.05 0.05 0.07 0.06
0.02 0.03 0.03 0.03 0.03 0.04 0.06 0.06 0.05 0.05 0.05 0.05 0.04 0.04 0.04 0.04 0.04 0.04 0.05 0.06 0.08 0.10 0.11 0.13 0.14 0.15 0.15 0.13 0.11 0.09 0.08 0.07 0.09 0.11 0.06 0.02 0.02 0.02 0.04 0.03 0.04 0.05 0.06
0.03 0.04 0.04 0.05 0.06 0.06 0.06 0.06 0.06 0.05 0.06 0.05 0.05 0.04 0.04 0.05 0.06 0.07 0.08 0.10 0.12 0.14 0.15 0.15 0.15 0.14 0.12 0.09 0.07 0.06 0.07 0.07 0.07 0.11 0.12 0.09 0.06 0.04 0.06 0.06 0.05 0.05 0.05
0.04 0.05 0.06 0.07 0.06 0.07 0.06 0.06 0.06 0.05 0.06 0.06 0.07 0.08 0.08 0.09 0.11 0.14 0.16 0.18 0.19 0.20 0.19 0.17 0.14 0.11 0.08 0.06 0.06 0.07 0.07 0.10 0.17 0.22 0.20 0.14 0.09 0.08 0.07 0.07 0.09 0.07 0.05
0.06 0.07 0.07 0.07 0.07 0.07 0.07 0.08 0.08 0.09 0.09 0.10 0.13 0.16 0.21 0.24 0.30 0.28 0.24 0.22 0.20 0.17 0.14 0.11 0.09 0.06 0.04 0.05 0.05 0.07 0.13 0.22 0.29 0.32 0.26 0.17 0.08 0.05 0.07 0.12 0.18 0.21 0.15
0.06 0.08 0.07 0.08 0.08 0.08 0.10 0.14 0.17 0.19 0.20 0.23 0.26 0.30 0.32 0.33 0.31 0.24 0.19 0.15 0.13 0.11 0.08 0.06 0.04 0.02 0.02 0.02 0.02 0.08 0.14 0.19 0.23 0.22 0.17 0.10 0.10 0.12 0.23 0.32 0.29 0.27 0.17
0.07 0.10 0.12 0.13 0.17 0.20 0.20 0.24 0.30 0.33 0.34 0.36 0.37 0.38 0.36 0.32 0.26 0.19 0.14 0.11 0.09 0.06 0.04 0.02 0.01 0.01 0.02 0.05 0.12 0.17 0.11 0.07 0.06 0.06 0.09 0.13 0.16 0.16 0.23 0.33 0.29 0.22 0.10
0.08 0.11 0.14 0.17 0.24 0.29 0.31 0.34 0.37 0.41 0.43 0.41 0.37 0.32 0.26 0.21 0.16 0.11 0.07 0.05 0.03 0.02 0.01 0.01 0.03 0.03 0.05 0.17 0.26 0.22 0.10 0.03 0.02 0.07 0.12 0.12 0.10 0.09 0.11 0.27 0.38 0.39 0.24
0.18 0.22 0.26 0.31 0.37 0.40 0.39 0.39 0.37 0.35 0.33 0.29 0.24 0.20 0.15 0.11 0.07 0.04 0.03 0.02 0.02 0.01 0.02 0.02 0.03 0.05 0.13 0.26 0.24 0.19 0.10 0.06 0.09 0.06 0.03 0.01 0.01 0.02 0.08 0.23 0.57 0.84 0.58
0.33 0.35 0.35 0.37 0.38 0.38 0.35 0.32 0.28 0.23 0.18 0.14 0.10 0.08 0.05 0.03 0.02 0.01 0.02 0.03 0.05 0.07 0.06 0.03 0.02 0.10 0.21 0.22 0.16 0.08 0.09 0.16 0.12 0.03 0.01 0.01 0.01 0.02 0.04 0.08 0.30 0.83 1.03
0.32 0.32 0.31 0.30 0.27 0.26 0.23 0.19 0.15 0.11 0.08 0.05 0.03 0.02 0.01 0.01 0.00 0.00 0.02 0.06 0.11 0.11 0.07 0.04 0.07 0.16 0.15 0.09 0.04 0.04 0.10 0.10 0.03 0.03 0.03 0.03 0.03 0.04 0.04 0.05 0.10 0.24 0.55
0.24 0.23 0.20 0.16 0.14 0.12 0.10 0.08 0.06 0.05 0.03 0.02 0.01 0.01 0.00 0.00 0.00 0.00 0.02 0.08 0.12 0.10 0.08 0.12 0.14 0.09 0.04 0.01 0.01 0.03 0.04 0.02 0.06 0.12 0.10 0.06 0.04 0.05 0.06 0.08 0.09 0.13 0.21
0.12 0.12 0.09 0.06 0.04 0.03 0.02 0.02 0.01 0.01 0.00 0.00 0.00 0.01 0.01 0.00 0.00 0.01 0.04 0.07 0.08 0.10 0.13 0.13 0.06 0.01 0.00 0.00 0.01 0.00 0.01 0.02 0.11 0.20 0.17 0.09 0.05 0.06 0.09 0.17 0.27 0.29 0.35
0.03 0.03 0.02 0.02 0.01 0.01 0.00 0.00 0.00 0.00 0.00 0.00 0.01 0.01 0.02 0.02 0.02 0.08 0.11 0.10 0.13 0.16 0.14 0.04 0.00 0.00 0.01 0.01 0.00 0.00 0.01 0.02 0.06 0.11 0.17 0.17 0.11 0.10 0.12 0.22 0.39 0.50 0.54
0.00 0.00 0.00 0.00 0.00 0.00 0.00 0.00 0.00 0.00 0.00 0.00 0.01 0.02 0.02 0.03 0.06 0.08 0.10 0.14 0.16 0.12 0.05 0.01 0.01 0.02 0.02 0.02 0.02 0.03 0.02 0.04 0.10 0.19 0.22 0.24 0.26 0.25 0.25 0.28 0.43 0.58 0.59
0.00 0.00 0.00 0.00 0.00 0.00 0.00 0.00 0.00 0.00 0.00 0.00 0.00 0.01 0.02 0.03 0.05 0.06 0.10 0.12 0.07 0.03 0.01 0.03 0.04 0.03 0.03 0.04 0.06 0.08 0.08 0.07 0.15 0.27 0.33 0.34 0.36 0.34 0.36 0.41 0.48 0.52 0.50
0.00 0.00 0.00 0.00 0.00 0.00 0.00 0.00 0.00 0.00 0.00 0.00 0.00 0.00 0.01 0.02 0.03 0.06 0.08 0.05 0.01 0.01 0.03 0.05 0.04 0.04 0.05 0.07 0.10 0.12 0.14 0.13 0.18 0.28 0.33 0.37 0.43 0.46 0.45 0.46 0.50 0.52 0.47
0.00 0.00 0.00 0.00 0.00 0.00 0.00 0.00 0.00 0.00 0.00 0.00 0.00 0.00 0.00 0.01 0.03 0.04 0.03 0.01 0.02 0.04 0.04 0.04 0.03 0.05 0.08 0.11 0.13 0.16 0.20 0.25 0.29 0.39 0.40 0.43 0.49 0.54 0.49 0.45 0.44 0.35 0.27
0.00 0.00 0.00 0.00 0.00 0.00 0.00 0.00 0.00 0.00 0.01 0.01 0.01 0.00 0.00 0.02 0.04 0.01 0.00 0.01 0.04 0.05 0.04 0.04 0.04 0.05 0.11 0.15 0.18 0.20 0.24 0.26 0.32 0.39 0.43 0.47 0.50 0.55 0.52 0.40 0.30 0.25 0.20
0.00 0.00 0.00 0.00 0.00 0.00 0.00 0.00 0.01 0.01 0.01 0.01 0.00 0.00 0.03 0.04 0.02 0.01 0.01 0.02 0.04 0.04 0.05 0.06 0.06 0.08 0.13 0.17 0.20 0.21 0.25 0.30 0.38 0.46 0.48 0.46 0.45 0.40 0.31 0.27 0.23 0.23 0.23
0.00 0.00 0.00 0.00 0.00 0.00 0.00 0.01 0.01 0.01 0.01 0.01 0.01 0.01 0.02 0.01 0.00 0.01 0.02 0.02 0.02 0.02 0.04 0.09 0.10 0.12 0.23 0.34 0.42 0.42 0.34 0.31 0.37 0.45 0.44 0.36 0.29 0.26 0.24 0.23 0.22 0.22 0.22
0.00 0.00 0.00 0.00 0.00 0.00 0.00 0.00 0.00 0.01 0.01 0.01 0.01 0.01 0.00 0.01 0.01 0.02 0.02 0.02 0.02 0.02 0.03 0.07 0.13 0.13 0.18 0.33 0.48 0.69 0.74 0.60 0.52 0.55 0.56 0.44 0.34 0.32 0.32 0.30 0.26 0.23 0.19
0.00 0.00 0.00 0.00 0.00 0.00 0.00 0.00 0.00 0.00 0.01 0.01 0.01 0.01 0.01 0.02 0.02 0.02 0.02 0.02 0.02 0.02 0.03 0.08 0.14 0.17 0.20 0.34 0.46 0.56 0.67 0.76 0.87 0.87 0.83 0.79 0.58 0.42 0.35 0.29 0.22 0.19 0.17
0.00 0.00 0.00 0.00 0.00 0.00 0.00 0.00 0.00 0.00 0.01 0.01 0.01 0.02 0.02 0.02 0.02 0.02 0.02 0.02 0.03 0.03 0.02 0.06 0.14 0.21 0.26 0.34 0.44 0.51 0.53 0.61 0.72 0.74 0.59 0.49 0.39 0.31 0.28 0.24 0.19 0.15 0.12
0.00 0.00 0.00 0.00 0.00 0.00 0.00 0.00 0.01 0.01 0.02 0.03 0.03 0.03 0.03 0.03 0.03 0.03 0.03 0.03 0.04 0.04 0.03 0.04 0.09 0.19 0.28 0.34 0.34 0.40 0.47 0.44 0.34 0.25 0.22 0.23 0.23 0.21 0.20 0.18 0.14 0.11 0.09